Location: Newark
(40.9833°N, 0.0333°W)
Time: 09:38:33
(UTC+00:00)

Transit 4A - Pass Details

Date: 28 October 2020
Orbit: 862 x 982 km, 66.8° (Epoch: 26 November)

Event Time Altitude Azimuth Distance (km) Brightness Sun altitude
Rises 01:54:20 0° 313° (NW) 3,685 - -50.3°
Reaches altitude 10° 01:57:56 10° 294° (WNW) 2,721 - -49.7°
Maximum altitude 02:01:37 16° 258° (WSW) 2,279 - -49.1°
Drops below altitude 10° 02:05:16 10° 222° (SW) 2,676 - -48.6°
Sets 02:08:47 0° 202° (SSW) 3,593 - -48.0°
